Location: Rogers
(33.5418°N, 96.2475°W)
Time: 15:05:44
(UTC+00:00)

BlueWalker 3 - Visible Passes

Search period start: 21 June 2024 00:00
Search period end: 01 July 2024 00:00
Orbit: 480 x 494 km, 53.2° (Epoch: 21 June)

Date Brightness Start Highest point End Pass type
(mag) Time Alt. Az. Time Alt. Az. Time Alt. Az.
21 Jun 4.8 03:12:29 10° W 03:15:19 20° NW 03:18:09 10° NNE visible
21 Jun 5.5 08:13:56 10° NNE 08:14:51 11° NNE 08:15:46 10° NE visible
21 Jun 2.1 09:49:51 10° NW 09:53:35 71° NE 09:57:18 10° SE visible
22 Jun 4.7 02:46:39 10° W 02:49:35 21° NW 02:52:32 10° NNE visible
22 Jun 5.4 07:48:47 10° NNE 07:49:07 10° NNE 07:49:26 10° NNE visible
22 Jun 2.2 09:24:10 10° NW 09:27:53 65° NE 09:31:35 10° SE visible
23 Jun 4.7 02:20:49 10° W 02:23:51 23° NW 02:26:53 10° NNE visible
23 Jun 2.4 08:58:28 10° NW 09:02:10 59° NE 09:05:51 10° SE visible
23 Jun 3.8 10:38:42 10° WSW 10:39:53 11° WSW 10:41:04 10° SW visible
24 Jun 3.6 08:32:46 10° NW 08:34:43 27° NNW 08:34:43 27° NNW visible
25 Jun 4.7 08:07:04 10° NNW 08:07:29 13° NNW 08:07:29 13° NNW visible
29 Jun 5.1 06:24:12 10° NNW 06:24:26 11° NNW 06:24:26 11° NNW visible
30 Jun 5.0 05:58:29 10° NNW 05:59:05 14° NNW 05:59:05 14° NNW visible
